User: anonymous   Login
Location: *
(51.1248°S, 108.4023°W)
Time: 15:30:08
(UTC+00:00)
Language:

Cosmos 2084 - Orbit

View from above orbital plane
View from above orbital plane
View from above satellite
View from above satellite

Ground track
Ground track

The orbit data is extracted from the following two-line orbital elements,

1 20663U 90055A   21269.13153126  .00000196  00000-0  36120-4 0  9990
2 20663  62.7944  53.0487 0085216  20.4597 339.9876 14.92314038692857
Epoch (UTC): 26 September 2021 03:09:24
Eccentricity: 0.0085216
inclination: 62.7944°
perigee height: 531 km
apogee height: 650 km
right ascension of ascending node: 53.0487°
argument of perigee: 20.4597°
revolutions per day: 14.92314038
mean anomaly at epoch: 339.9876°
orbit number at epoch: 69285

The dashed part of the orbit path shows where the satellite is in the earth's shadow,  

DLR